This is the latest recevied weather packets stored in our database for station/object K1BES. If no packets are shown the sender has not sent any weather packets the latest 10 day(s).
| Time | Temp. | Humidity | Pressure | Rain* | Wind** | Luminosity | Snow |
|---|---|---|---|---|---|---|---|
| 1778009877 | 28.89° C | 67% | 1016.3 hPa | 0 mm | - | 792 W/m² | - |
| 1778009575 | 28.89° C | 68% | 1016.3 hPa | 0 mm | - | 792 W/m² | - |
| 1778009273 | 28.33° C | 69% | 1016.5 hPa | 0 mm | - | 786 W/m² | - |
| 1778008971 | 28.33° C | 68% | 1016.5 hPa | 0 mm | - | 794 W/m² | - |
| 1778008668 | 28.89° C | 67% | 1016.6 hPa | 0 mm | - | 832 W/m² | - |
| 1778008367 | 28.89° C | 68% | 1016.5 hPa | 0 mm | - | 784 W/m² | - |
| 1778008062 | 28.89° C | 68% | 1016.4 hPa | 0 mm | - | 821 W/m² | - |
| 1778007757 | 28.89° C | 66% | 1016.5 hPa | 0 mm | - | 831 W/m² | - |
| 1778007454 | 28.89° C | 65% | 1016.6 hPa | 0 mm | - | 838 W/m² | - |
| 1778007150 | 28.89° C | 67% | 1016.6 hPa | 0 mm | - | 891 W/m² | - |
| 1778006847 | 28.89° C | 66% | 1016.7 hPa | 0 mm | - | 880 W/m² | - |
| 1778006544 | 28.33° C | 68% | 1016.7 hPa | 0 mm | - | 905 W/m² | - |
| 1778006241 | 28.89° C | 66% | 1016.5 hPa | 0 mm | - | 915 W/m² | - |
| 1778005939 | 29.44° C | 63% | 1016.7 hPa | 0 mm | - | 890 W/m² | - |
| 1778005634 | 28.89° C | 66% | 1016.9 hPa | 0 mm | - | 1014 W/m² | - |
| 1778005332 | 28.89° C | 66% | 1017 hPa | 0 mm | - | 1030 W/m² | - |
| 1778005028 | 28.89° C | 65% | 1017 hPa | 0 mm | - | 1034 W/m² | - |
| 1778004726 | 28.89° C | 65% | 1016.9 hPa | 0 mm | - | 1047 W/m² | - |
| 1778004422 | 29.44° C | 63% | 1017.1 hPa | 0 mm | - | 883 W/m² | - |
| 1778004119 | 28.89° C | 64% | 1017.1 hPa | 0 mm | - | 992 W/m² | - |
| 1778003815 | 29.44° C | 64% | 1017 hPa | 0 mm | - | 1001 W/m² | - |
| 1778003511 | 29.44° C | 63% | 1017.2 hPa | 0 mm | - | 1076 W/m² | - |
| 1778003208 | 29.44° C | 64% | 1017.2 hPa | 0 mm | - | 1046 W/m² | - |
| 1778002904 | 29.44° C | 64% | 1017.1 hPa | 0 mm | - | 1041 W/m² | - |
| 1778002601 | 29.44° C | 64% | 1017.4 hPa | 0 mm | - | 1070 W/m² | - |
* Rain latest hour (hover to see other rain measurements)
** Current wind speed in m/s (hover to see current wind gust speed)